Weather History for Logan, UT

Change the Weather History Date:

Tuesday, January 8, 2013

  Actual Average Record
Temperature  
Mean Temperature 23 °F -  
Max Temperature 28 °F 26 °F 48 °F (1966)
Min Temperature 18 °F 10 °F -24 °F (1979)
Degree Days  
Heating Degree Days 42    
Moisture  
Dew Point 18 °F    
Average Humidity 78    
Maximum Humidity 86    
Minimum Humidity 74    
Precipitation  
Precipitation 0.00 in - - ()
Sea Level Pressure  
Sea Level Pressure 30.36 in    
Wind  
Wind Speed 2 mph (SSW)    
Max Wind Speed 9 mph    
Max Gust Speed -    
Visibility 3 miles    
Events      
Averages and records for this station are not official NWS values.
T = Trace of Precipitation, MM = Missing Value Source: NWS Daily Summary

Daily Weather History Graph

Daily Weather History Graph

Search for Another Location

Airport:

Trip Planner

Search our weather history database for the weather conditions in past years. The results will help you decide how hot, cold, wet, or windy it might be!

Date:

Astronomy

Jan. 08, 2013 Rise Set
Actual Time 7:54 AM MST 5:14 PM MST
Civil Twilight 7:23 AM MST 5:45 PM MST
Nautical Twilight 6:48 AM MST 6:20 PM MST
Astronomical Twilight 6:15 AM MST 6:53 PM MST
Moon 4:31 AM MST (1/8) 2:20 PM MST (1/8)
Length of Visible Light 10h 22m
Length of Day
9h 19m
Waning Crescent, 13% of the Moon is Illuminated
Jan 8
Waning Crescent
Jan 11
New
Jan 18
First Quarter
Jan 26
Full
Feb 3
Last Quarter

Hourly Weather History & Observations

Time (MST) Temp. Windchill Dew Point Humidity Pressure Visibility Wind Dir Wind Speed Gust Speed Precip Events Conditions
12:51 AM 19.0 °F - 12.9 °F 77% 30.35 in 4.0 mi Calm Calm - N/A   Haze
1:51 AM 18.0 °F - 12.9 °F 81% 30.35 in 4.0 mi Calm Calm - N/A   Haze
2:51 AM 19.0 °F - 12.9 °F 77% 30.35 in 4.0 mi Calm Calm - N/A   Haze
3:51 AM 19.0 °F - 14.0 °F 81% 30.35 in 5.0 mi Calm Calm - N/A   Haze
4:51 AM 19.0 °F 13.9 °F 14.0 °F 81% 30.34 in 4.0 mi South 3.5 mph - N/A   Haze
5:51 AM 19.9 °F - 15.1 °F 81% 30.35 in 4.0 mi Calm Calm - N/A   Haze
6:51 AM 19.9 °F 14.9 °F 15.1 °F 81% 30.37 in 4.0 mi South 3.5 mph - N/A   Haze
7:51 AM 21.0 °F 12.4 °F 15.1 °F 78% 30.37 in 4.0 mi SSW 6.9 mph - N/A   Haze
8:41 AM 19.4 °F 14.3 °F 15.8 °F 86% 30.25 in 2.5 mi WSW 3.5 mph - N/A   Overcast
9:45 AM 21.2 °F 12.6 °F 15.8 °F 80% 30.28 in 3.0 mi East 6.9 mph - N/A   Haze
9:51 AM 21.9 °F 11.7 °F 16.0 °F 78% 30.41 in 3.0 mi East 9.2 mph - N/A   Haze
10:51 AM 23.0 °F 14.7 °F 18.0 °F 81% 30.42 in 3.0 mi SW 6.9 mph - N/A   Haze
10:59 AM 23.0 °F 13.9 °F 17.6 °F 80% 30.29 in 2.5 mi WSW 8.1 mph - N/A   Haze
11:30 AM 24.8 °F - 17.6 °F 74% 30.29 in 3.0 mi Calm Calm - N/A   Haze
11:41 AM 24.8 °F 20.5 °F 17.6 °F 74% 30.28 in 2.5 mi East 3.5 mph - N/A   Haze
11:51 AM 25.0 °F 20.7 °F 18.0 °F 75% 30.39 in 3.0 mi ENE 3.5 mph - N/A   Haze
12:00 PM 24.8 °F 20.5 °F 19.4 °F 80% 30.28 in 2.5 mi North 3.5 mph - N/A   Haze
12:31 PM 24.8 °F - 17.6 °F 74% 30.28 in 3.0 mi Calm Calm - N/A   Haze
12:51 PM 25.0 °F 19.3 °F 18.0 °F 75% 30.39 in 3.0 mi SE 4.6 mph - N/A   Haze
1:51 PM 26.1 °F 19.4 °F 19.9 °F 78% 30.39 in 3.0 mi WSW 5.8 mph - N/A   Haze
2:51 PM 27.0 °F - 21.0 °F 78% 30.40 in 3.0 mi Calm Calm - N/A   Haze
3:51 PM 28.0 °F 22.8 °F 21.0 °F 75% 30.40 in 3.0 mi SW 4.6 mph - N/A   Haze
4:40 PM 28.4 °F 22.2 °F 21.2 °F 74% 30.30 in 2.5 mi SSW 5.8 mph - N/A   Haze
4:51 PM 27.0 °F 20.5 °F 21.0 °F 78% 30.41 in 2.5 mi WSW 5.8 mph - N/A   Haze
5:29 PM 28.4 °F - 21.2 °F 74% 30.32 in 3.0 mi Calm Calm - N/A   Haze
5:51 PM 28.0 °F - 21.9 °F 78% 30.43 in 3.0 mi Calm Calm - N/A   Haze
6:17 PM 28.4 °F - 23.0 °F 80% 30.32 in 3.0 mi Calm Calm - N/A   Haze
6:51 PM 28.0 °F - 21.9 °F 78% 30.43 in 3.0 mi Calm Calm - N/A   Haze
7:51 PM 28.0 °F - 23.0 °F 81% 30.45 in 3.0 mi Calm Calm - N/A   Haze
8:51 PM 28.0 °F 24.2 °F 21.9 °F 78% 30.46 in 4.0 mi South 3.5 mph - N/A   Haze
9:51 PM 28.0 °F - 21.0 °F 75% 30.46 in 4.0 mi Calm Calm - N/A   Haze
11:51 PM 27.0 °F - 23.0 °F 85% 30.47 in 3.0 mi Calm Calm - N/A   Overcast